Other Public Products
Issued by NWS Grand Forks, ND

Home | Current Version | Previous Version | Text Only | Print | Product List | Glossary Off
Versions: 1 2 3 4 5 6 7 8 9 10 11 12 13 14 15 16 17 18 19 20 21 22 23 24 25 26 27 28 29 30 31 32 33 34 35 36 37 38 39 40 41 42 43 44 45 46 47 48 49 50

000
FPUS83 KFGF 010310
OPUFGF
PRAIRIE TO PINES WEATHER ROUNDUP
NATIONAL WEATHER SERVICE EASTERN NORTH DAKOTA/GRAND FORKS ND
1000 PM CDT SUN AUG 31 2014

 **SATELLITE DATA USED TO AUGMENT SKY COVER AT AUTOMATED STATIONS**
 *****  WEATHER ACROSS EASTERN NORTH DAKOTA  *****

CITY           SKY/WX    TMP DP  RH WIND       PRES   REMARKS
GRAND FORKS    PTCLDY    61  56  83 NW6       29.60R
GRAND FORKS AF PTCLDY    62  57  84 NW7       29.62R
GRAND CITY NWS   N/A     61 N/A N/A NW6         N/A
BUXTON         NOT AVBL
DEVILS LAKE    CLEAR     59  52  77 NW7       29.65R
FARGO          PTCLDY    63  60  90 N5        29.61S
WAHPETON ARPT  MOCLDY    63  59  88 SW3       29.64R
$$

 *****  WEATHER ACROSS CENTRAL AND WESTERN NORTH DAKOTA  *****

CITY           SKY/WX    TMP DP  RH WIND       PRES   REMARKS
JAMESTOWN      PTCLDY    62  57  83 NW10      29.66R
BISMARCK       MOCLDY    62  58  86 NW3       29.71S
MINOT          LGT RAIN  59  53  80 S3        29.70F
MINOT AFB      LGT RAIN  59  56  92 W7        29.70F
GARRISON         N/A     59  55  87 NW10      29.73R
WILLISTON      MOCLDY    58  52  80 CALM      29.75S
DICKINSON      CLOUDY    57  51  80 NW5       29.78R
HETTINGER      CLOUDY    56  50  80 SW12      29.80F
$$

 *****  OTHER OBSERVATIONS NORTHEAST NORTH DAKOTA  *****

CITY           SKY/WX    TMP DP  RH WIND       PRES   REMARKS
WALHALLA         N/A     57  57 100 NW9       29.62F
LANGDON        MOCLDY    59  55  88 NW7       29.65S
CAVALIER       FAIR      61  57  88 NW8       29.61F
GRAFTON        FAIR      61  61 100 NW5       29.61R
CANDO          FAIR      55  52  88 NW8       29.67S
FORT TOTTEN      N/A     61  57  86 NW5       29.95
ROLLA          FAIR      55  55 100 W8        29.69S
RUGBY          FAIR      54  54 100 NW6       29.69R
 ***** THE ABOVE OBSERVATIONS ARE NON NWS ARE NOT QUALITY
        CONTROLLED AND MAY MIS-REPORT RAIN FOR SNOW...
$$

 *****  OTHER OBSERVATIONS SOUTHEAST NORTH DAKOTA *****

CITY           SKY/WX    TMP DP  RH WIND       PRES   REMARKS
COOPERSTOWN    NOT AVBL
VALLEY CITY    FAIR      59  59 100 NW8       29.64S
OAKES            N/A     61  61 100 CALM      29.66R
GWINNER        CLEAR     64  63  94 NW7       29.67R
BUFFALO        NOT AVBL
WYNDMERE       NOT AVBL
 ***** THE ABOVE OBSERVATIONS ARE NON NWS ARE NOT QUALITY
       CONTROLLED AND MAY MIS-REPORT RAIN FOR SNOW...
$$

  *****  WEATHER ACROSS NORTHERN MINNESOTA  *****

CITY           SKY/WX    TMP DP  RH WIND       PRES   REMARKS
FLAG ISLAND    CLOUDY    63  57  82 W13       29.53S
WARROAD        MOCLDY    61  55  82 W5        29.57F
ROSEAU         MOCLDY    61  55  82 W7        29.58S
HALLOCK        PTCLDY    59  57  94 CALM      29.59S
THF RVR FALLS  CLEAR     61  57  88 NW6       29.61R
HALSTAD          N/A     61  59  93 NW5         N/A
FOSSTON        MOCLDY    59  57  94 CALM      29.64R
BAUDETTE       CLOUDY    63  60  90 VRB6      29.56F
WASKISH        MOCLDY    64  61  88 W10       29.60R
CROOKSTON      PTCLDY    61  57  88 NW5       29.62R
$$
  *****  WEATHER ACROSS CENTRAL AND WEST MINNESOTA  *****

CITY           SKY/WX    TMP DP  RH WIND       PRES   REMARKS
BEMIDJI        PTCLDY    61  60  96 S5        29.63R
PARK RAPIDS    MOCLDY    64  62  93 SW3       29.65R
WADENA         CLOUDY    64  63  94 CALM      29.64R
DETROIT LAKES  PTCLDY    64  63  94 CALM      29.67R
MOORHEAD       PTCLDY    63  63 100 N3        29.62R
FERGUS FALLS   MOCLDY    64  63  94 CALM      29.63S
ELBOW LAKE     FAIR      64  63  96 CALM      29.64R
MORRIS MN      CLOUDY    66  64  94 CALM      29.65R
STAPLES        CLOUDY    64  63  94 W3        29.64R
WHEATON        MOCLDY    61  59  94 CALM      29.66R
$$
  *****  WEATHER ELSEWHERE ACROSS MINNESOTA  *****

CITY           SKY/WX    TMP DP  RH WIND       PRES   REMARKS
DULUTH         CLOUDY    63  60  90 E9        29.61F
INTRNTL FALLS  CLOUDY    64  62  93 VRB3      29.57F
ELY            CLOUDY    63  57  82 S5        29.61S
CLOQUET        LGT RAIN  64  63  94 CALM      29.63R
BRAINERD       CLOUDY    65  64  97 S3        29.64R
HIBBING        CLOUDY    62  61  96 CALM      29.60F FOG
ALEXANDRIA     CLOUDY    66  62  87 W3        29.66R
SAINT CLOUD    LGT RAIN  67  64  90 CALM      29.63F FOG
MINNEAPOLIS    TSTM      66  64  93 W15G24    29.71R FOG
$$

  *****  WEATHER ACROSS SOUTH DAKOTA  *****

CITY           SKY/WX    TMP DP  RH WIND       PRES   REMARKS
SIOUX FALLS    CLOUDY    63  60  90 CALM      29.69R
BROOKINGS      NOT AVBL
WATERTOWN      CLOUDY    62  58  86 W5        29.68R
HURON          CLEAR     60  58  92 SW5       29.69R
SISSETON         N/A     61  60  97 CALM      29.64R
ABERDEEN       PTCLDY    60  60 100 S3        29.66R
MITCHELL         N/A     63  60  90 W7        29.71R
PIERRE         CLOUDY    64  61  90 W5        29.71R
MOBRIDGE       MOCLDY    62  61  96 CALM      29.69R
RAPID CITY     PTCLDY    57  54  89 NW10      29.86R
$$

  *****  SOME WEATHER IN NEARBY STATES *****

CITY           SKY/WX    TMP DP  RH WIND       PRES   REMARKS
GLASGOW MT     CLEAR     59  48  67 NE9       29.76R
GREAT FALLS MT CLOUDY    59  40  49 W16       29.91R
CHEYENNE WY    MOCLDY    55  42  61 N8        30.02R
SCOTTSBLUFF NE CLEAR     56  48  74 W7        29.92R
OMAHA NE       CLOUDY    70  66  87 SE9       29.66F
DES MOINES IA  TSTM      70  66  87 NW33G51   29.76R SQUALL  VSB 3/4
DAVENPORT IA   PTCLDY    78  67  68 S15       29.81S
CHICAGO IL     CLEAR     76  69  79 S8        29.85F
EAU CLAIRE WI  CLOUDY    75  67  76 SW8       29.70R
LA CROSSE WI   CLOUDY    70  66  87 SE6       29.71S
$$

  *****  SOME NATIONAL WEATHER *****

CITY           SKY/WX    TMP DP  RH WIND       PRES   REMARKS
LA GUARDIA NY  CLOUDY    79  72  79 SW7       30.00R
RALEIGH NC     MOCLDY    81  71  71 S9        30.10R
ATLANTA GA     MOCLDY    80  72  76 SE3       30.13R
NEW ORLEANS LA MOCLDY    82  75  79 SE6       30.05R
OKLAHOMA CITY  CLEAR     86  66  51 S20G29    29.78R
ALBUQUERQUE NM CLEAR     82  35  18 W6        30.01R
SALT LAKE CITY CLEAR     69  33  26 CALM      29.98F
LOS ANGELES CA PTCLDY    73  67  81 W5        29.78R
BOISE ID       CLEAR     68  39  34 NW5       29.96S
SEATTLE WA     MOCLDY    66  51  58 CALM      30.04S
$$

*** WEATHER ACROSS MANITOBA...SASKATCHEWAN AND ONTARIO ***
                ***ONTARIO***

CITY           SKY/WX    TMP DP  RH WIND       PRES   REMARKS
GERALDTON      MOCLDY    59  52  77 SE5       29.77F
THUNDER BAY    CLOUDY    59  57  94 E15G23    29.69F
SIOUX LOOKOUT  CLOUDY    63  57  82 S8        29.54F
TORONTO        PTCLDY    73  64  73 NW7       29.95R
BIG TROUT LK   LGT RAIN  57  55  94 SE10      29.66F
PICKLE LAKE    NOT AVBL
DRYDEN         MOCLDY    63  63 100 S8        29.53F
KENORA         DRIZZLE   63  61  94 W7        29.53S FOG
$$
                *** MANITOBA***

CITY           SKY/WX    TMP DP  RH WIND       PRES   REMARKS
BRANDON        MOCLDY    57  55  94 SW3       29.67S
DAUPHIN        CLEAR     57  55  94 SW5       29.64S
ISLAND LAKE    MOCLDY    57  57 100 CALM      29.58F
PILOT MOUND      N/A     57  54  88 W6          N/A
THE PAS        PTCLDY    57  50  77 CALM      29.58S
THOMPSON       PTCLDY    50  50 100 CALM      29.55R
WINNIPEG       MOCLDY    61  59  94 NW6       29.60S
LYNN LAKE      MOCLDY    55  50  82 MISG      29.55R
CHURCHILL      LGT RAIN  50  48  93 E17G24    29.58F FOG
GILLAM         CLOUDY    57  57 100 S8        29.56S
$$
                ***SASKATCHEWAN***

CITY           SKY/WX    TMP DP  RH WIND       PRES   REMARKS
ESTEVAN        PTCLDY    55  54  94 SW5       29.74R
KINDERSLEY     PTCLDY    55  41  58 NW7       29.78R
LLOYDMINSTER   MOCLDY    52  41  66 W7        29.74R
PRINCE ALBERT  PTCLDY    54  50  87 SW5       29.67R
REGINA         NOT AVBL
YORKTON        CLEAR     59  50  72 W7        29.67S



USA.gov is the U.S. government's official web portal to all federal, state and local government web resources and services.